This is the latest recevied weather packets stored in our database for station/object JF2ZGN-13. If no packets are shown the sender has not sent any weather packets the latest 10 day(s).
| Time | Temp. | Humidity | Pressure | Rain* | Wind** | Luminosity | Snow |
|---|---|---|---|---|---|---|---|
| 1787606757 | 21.11° C | 80% | 911.8 hPa | 0 mm | - | - | - |
| 1787606156 | 21.11° C | 80% | 911.5 hPa | 0 mm | - | - | - |
| 1787605556 | 21.11° C | 77% | 911.7 hPa | 0 mm | - | - | - |
| 1787604956 | 20.56° C | 77% | 911.6 hPa | 0 mm | - | - | - |
| 1787604355 | 21.11° C | 78% | 911.7 hPa | 0 mm | - | - | - |
| 1787603755 | 21.11° C | 78% | 911.6 hPa | 0 mm | - | - | - |
| 1787603154 | 20.56° C | 81% | 911.5 hPa | 0 mm | - | - | - |
| 1787602554 | 20.56° C | 83% | 911.5 hPa | 0 mm | - | - | - |
| 1787601953 | 20° C | 83% | 911.4 hPa | 0 mm | - | - | - |
| 1787601353 | 20.56° C | 83% | 911.4 hPa | 0 mm | - | - | - |
| 1787600752 | 20° C | 84% | 911.4 hPa | 0 mm | - | - | - |
| 1787600152 | 20° C | 85% | 911.5 hPa | 0 mm | - | - | - |
| 1787599552 | 20° C | 87% | 911.5 hPa | 0 mm | - | - | - |
| 1787598951 | 20° C | 88% | 911.4 hPa | 0 mm | - | - | - |
| 1787598350 | 20° C | 89% | 911.4 hPa | 0 mm | - | - | - |
| 1787597750 | 20° C | 88% | 911.3 hPa | 0 mm | - | - | - |
| 1787597149 | 20° C | 89% | 911.4 hPa | 0 mm | - | - | - |
| 1787596550 | 20° C | 89% | 911.4 hPa | 0 mm | - | - | - |
| 1787595949 | 19.44° C | 88% | 911.3 hPa | 0 mm | - | - | - |
| 1787595348 | 19.44° C | 88% | 911.4 hPa | 0 mm | - | - | - |
| 1787594748 | 19.44° C | 86% | 911.4 hPa | 0 mm | - | - | - |
| 1787594147 | 19.44° C | 86% | 911.3 hPa | 0 mm | - | - | - |
| 1787593547 | 20° C | 85% | 911.2 hPa | 0 mm | - | - | - |
| 1787592946 | 19.44° C | 85% | 911.2 hPa | 0 mm | - | - | - |
| 1787592346 | 20° C | 83% | 911.2 hPa | 0 mm | - | - | - |
* Rain since midnight (hover to see other rain measurements)
** Current wind speed in m/s (hover to see current wind gust speed)